GAOFEN-12 03

Last updated on Mon Sep 21 2026 00:02:46 GMT+0000 (Coordinated Universal Time)

1 52912U 22069A 26263.64548245 .00000598 00000+0 85415-4 0 9993 2 52912 97.8116 149.0411 0001340 112.7917 247.3437 14.80157895228739
UTC large
Height (km)
Speed (km/s)
/
Latitude / Longitude
Inclination (degrees)
Orbital Period (minutes)
Azimuth
Elevation
Range (km)
Doppler Factor

Next 0 passes for location: London (51.5072 / 0.1276)

No passes found over London.
GAOFEN-12 03